Back to catalog

STARLINK-33643

AliveCommunicationsVLEO
NORAD 63381·PAYLOAD·🇺🇸 United States

Launched Mar 26, 2025 from Vandenberg Space Force Base

Loading…

Next Passes (next 24 hours)

TLE

FreshSource: CelesTrak SupGP

Epoch: Sep 14, 2026, 22:31 UTC

1 63381C 25063U   26257.93868056  .00044821  00000+0  13242-2 0  2573
2 63381  53.1561 251.3966 0001306 103.7862 227.6657 15.34368253    19

Track STARLINK-33643 in real time with AllMySat

Download on the App Store